Regional Weather Roundup
Issued by NWS

Home | Current Version | Previous Version | Text Only | Print | Product List | Glossary Off
Versions: 1 2 3 4 5 6 7 8 9 10 11 12 13 14 15 16 17 18 19 20 21 22 23 24 25 26 27 28 29 30 31 32 33 34 35 36 37 38 39 40 41 42 43 44 45 46 47 48 49 50

000
ASUS43 KBIS 260810
RWRND

NORTH DAKOTA REGIONAL WEATHER ROUNDUP
NATIONAL WEATHER SERVICE BISMARCK ND
300 AM CDT MON JUN 26 2017

NOTE: "FAIR" INDICATES FEW OR NO CLOUDS BELOW 12,000 FEET WITH NO
SIGNIFICANT WEATHER AND/OR OBSTRUCTIONS TO VISIBILITY.


NDZ001>003-009>011-017-260900-
NORTHWEST NORTH DAKOTA

CITY           SKY/WX    TMP DP  RH WIND       PRES   REMARKS
WILLISTON      CLEAR     53  45  74 E6        30.25R
MINOT          CLEAR     48  41  76 SW5       30.24S
MINOT AFB      CLEAR     42  38  85 W7        30.23S
$$

NDZ018>021-031>035-040>046-260900-
SOUTHWEST NORTH DAKOTA

CITY           SKY/WX    TMP DP  RH WIND       PRES   REMARKS
BISMARCK       CLEAR     46  43  89 CALM      30.26S
DICKINSON      CLEAR     45  40  82 S9        30.23S
GARRISON         N/A     41  38  89 CALM      30.24F
HETTINGER ARPT CLEAR     42  36  79 NE5       30.26R
$$

NDZ004>008-012>016-024-026-027-054-260900-
NORTHEAST NORTH DAKOTA

CITY           SKY/WX    TMP DP  RH WIND       PRES   REMARKS
GRAND FORKS    CLEAR     44  42  93 W6        30.20S
GRND FRKS AFB  CLEAR     42  40  95 NW7       30.21S
DEVILS LAKE    CLEAR     44  41  89 NW3       30.24F
$$

NDZ022-023-025-028>030-036>039-047>053-260900-
SOUTHEAST NORTH DAKOTA

CITY           SKY/WX    TMP DP  RH WIND       PRES   REMARKS
FARGO          CLEAR     43  38  82 NW3       30.21S
JAMESTOWN      CLEAR     44  41  89 CALM      30.23S
$$





USA.gov is the U.S. government's official web portal to all federal, state and local government web resources and services.